Tracking 19644 objects as of 24-Apr-2019
HD Live streaming from Space Station
objects crossing your sky now

SL-16 DEB

Track SL-16 DEB now!
10-day predictions


NORAD ID: 42245
Int'l Code: 1993-016CZ
Perigee: 732.1 km
Apogee: 907.4 km
Inclination: 71.0 °
Period: 101.1 minutes
Semi major axis: 7190 km
RCS: Unknown
Launch date: March 26, 1993
Source: Commonwealth of Independent States (former USSR) (CIS)
Launch site: PLESETSK MISSILE AND SPACE COMPLEX (PKMTR)

Note: This is SATELLITE DEBRIS
aabbcc
Your satellite tracking list
Your tracking list is empty




NASA's NSSDC Master Catalog

Two Line Element Set (TLE):
1 42245U 93016CZ  19090.53069820 +.00001453 +00000-0 +60780-3 0  9995
2 42245 070.9931 043.8478 0121873 166.5575 193.8850 14.23785515223067
Source of the keplerian elements: AFSPC